CAPE
8 5 7 10 8 11 10 11 13 3 3 5 5 0 1 1 1 0 0 0 0 0 0 0 0 0 0 0 0 0 0 0 0 0 0 0 0 0 0 0 0 0 0 0 0 0 0
15 14 14 13 9 2 11 17 10 7 7 7 6 6 1 0 1 0 0 0 0 0 0 0 1 1 0 0 0 0 0 0 0 0 0 0 0 0 0 0 0 0 0 0 0 0 0
8 12 16 10 6 21 28 13 7 3 9 15 13 0 0 0 0 0 0 0 0 0 0 0 6 2 0 0 0 0 0 0 0 0 0 0 0 0 0 0 0 0 0 0 0 0 0
15 11 7 12 14 17 6 8 9 13 20 11 0 0 0 0 0 0 0 0 0 0 0 0 3 3 0 0 0 0 0 0 0 0 0 0 0 0 0 0 0 0 0 0 0 0 0
7 15 11 11 18 14 6 14 17 19 10 6 0 0 0 0 0 0 0 0 0 0 0 0 2 1 0 0 0 0 0 0 0 0 0 0 0 0 0 0 0 0 0 0 0 0 0
20 16 26 16 21 10 17 16 13 8 7 7 0 1 0 0 0 0 0 0 0 0 0 0 0 0 0 0 0 0 0 0 0 0 0 0 0 0 0 0 0 0 0 0 0 0 0
25 30 24 12 19 24 15 9 22 13 9 4 0 2 1 0 0 0 0 0 0 0 0 0 0 0 0 0 0 0 0 0 0 0 0 0 0 0 0 0 0 0 0 0 0 0 0
31 21 19 25 15 22 14 10 29 14 10 0 1 4 1 0 0 0 0 1 0 0 0 0 0 0 0 0 0 0 0 0 0 0 0 0 0 0 0 0 0 0 0 0 0 0 0
15 14 38 30 17 21 22 12 10 20 10 5 1 4 0 0 0 0 0 4 0 0 1 0 0 0 0 0 0 0 0 0 0 0 0 0 0 0 0 0 0 0 0 0 0 0 0
23 26 21 35 24 17 13 11 8 16 12 7 1 2 0 0 1 0 8 0 0 0 0 0 0 0 0 0 0 0 0 0 0 0 0 0 0 0 0 0 0 0 0 0 0 0 0
37 33 19 26 24 20 20 8 6 15 8 9 3 0 0 0 16 12 3 0 0 1 0 0 0 0 0 0 0 0 0 0 0 0 0 0 0 0 0 0 0 0 0 0 0 0 0
35 32 26 17 32 18 18 14 16 7 9 11 5 0 2 13 15 1 0 0 1 2 0 0 0 0 0 0 0 0 0 0 0 0 0 0 0 0 0 0 0 0 0 0 0 0 0
33 23 36 23 31 24 24 17 9 12 12 12 7 4 4 12 18 2 0 0 6 0 0 0 0 0 0 0 0 0 0 0 0 0 0 0 0 0 0 0 0 0 0 0 0 0 0
27 29 32 17 33 40 37 23 13 11 16 14 12 3 4 6 18 29 2 6 0 0 0 0 0 0 0 0 0 0 0 0 0 0 0 0 0 0 0 0 0 0 0 0 0 0 0
28 39 31 27 23 26 27 25 23 18 14 10 14 12 6 2 6 34 2 2 0 0 0 0 0 0 0 0 0 0 0 0 0 0 0 0 0 0 0 0 0 0 0 0 0 0 0
15 21 26 30 25 35 28 25 9 14 16 15 17 3 0 3 32 42 8 0 0 0 0 0 0 0 0 0 0 0 0 0 0 0 0 0 0 0 0 0 0 0 0 0 0 0 0
32 28 24 23 31 13 15 15 14 15 0 23 21 21 0 2 36 29 3 2 0 0 0 0 0 0 0 0 0 0 0 0 0 26 0 0 8 1 0 0 0 0 0 0 0 0 0
15 19 24 28 31 6 8 26 7 9 0 15 23 8 24 41 10 8 2 7 9 0 0 0 0 0 0 0 0 0 0 0 0 0 0 0 0 0 0 0 0 0 0 0 0 0 0
23 25 34 29 28 15 24 13 32 9 29 16 18 9 24 55 5 1 14 9 18 1 0 1 1 0 0 2 0 0 0 0 0 0 0 5 0 0 0 0 0 1 0 0 0 0 0
26 34 36 26 29 34 17 14 9 10 18 17 14 7 8 18 1 5 11 11 14 0 4 10 1 0 4 9 6 0 0 0 0 0 0 0 12 1 0 0 0 0 0 0 0 0 0
25 19 21 23 22 31 24 10 18 20 8 21 14 8 19 8 6 5 10 10 11 9 3 1 1 0 4 2 11 3 0 0 0 0 11 8 0 0 0 0 0 0 0 0 0 0 0
30 37 34 30 31 26 26 20 17 6 32 21 11 11 10 17 32 7 9 4 10 3 3 5 0 4 0 1 8 3 0 0 0 0 0 4 0 0 0 0 0 0 0 0 0 0 0
29 32 26 27 34 42 44 40 14 32 39 25 20 10 12 4 5 15 12 7 1 11 7 5 3 2 3 0 10 13 8 7 0 0 0 0 22 0 0 0 0 0 0 0 0 0 0
22 27 28 31 30 25 17 24 18 26 25 14 20 13 11 0 3 13 7 7 6 5 10 7 0 1 5 4 8 5 9 1 0 0 0 0 16 23 0 0 0 0 0 0 0 0 0
8 14 20 26 30 30 24 29 17 50 29 44 11 28 18 2 0 2 13 11 9 19 7 1 2 3 2 2 3 12 15 23 1 0 0 0 10 10 2 3 0 0 0 0 0 0 0
8 15 18 21 20 24 32 24 16 10 28 35 19 14 25 1 2 13 12 14 11 5 7 0 3 8 1 0 2 2 11 7 11 10 0 0 1 17 5 0 0 0 0 0 0 0 0
5 0 1 6 9 15 22 9 8 15 23 32 12 28 28 6 0 2 16 9 13 23 0 9 2 4 3 0 4 7 5 6 5 10 2 7 14 5 3 22 11 0 0 0 4 0 0
6 4 0 1 5 10 20 23 26 32 21 31 4 28 13 2 5 24 3 15 13 16 2 12 1 0 0 2 16 9 6 6 2 13 2 1 6 9 6 9 2 0 0 0 53 4 0
7 4 7 2 4 3 4 6 12 20 27 41 17 20 45 22 15 1 1 39 17 3 21 10 15 2 4 9 5 9 14 10 2 4 4 13 1 3 0 3 8 18 39 0 0 0 0
CIN
-1 -1 0 -2 -4 -3 -1 -2 -4 -7 -7 -7 -4 0 0 0 0 0 0 0 0 0 0 0 0 0 0 0 0 0 0 0 0 0 0 0 0 0 0 0 0 0 0 0 0 0 0
-2 -2 -3 -2 -3 -2 -3 -2 -6 -8 -8 -8 -3 -2 0 0 0 0 0 0 0 0 0 0 0 0 0 0 0 0 0 0 0 0 0 0 0 0 0 0 0 0 0 0 0 0 0
-1 -2 -3 -4 -3 -1 -1 -2 -5 -7 -2 0 0 0 0 0 0 0 0 0 0 0 0 0 0 -1 0 0 0 0 0 0 0 0 0 0 0 0 0 0 0 0 0 0 0 0 0
-2 -3 -3 -3 -2 -4 -3 -2 -5 -2 0 0 0 0 0 0 0 0 0 0 0 0 0 0 0 0 0 0 0 0 0 0 0 0 0 0 0 0 0 0 0 0 0 0 0 0 0
-4 -2 -2 -2 -3 -2 -2 -4 -3 -2 -1 -1 0 0 0 0 0 0 0 0 0 0 0 0 0 0 0 0 0 0 0 0 0 0 0 0 0 0 0 0 0 0 0 0 0 0 0
-1 -3 0 -2 -2 -2 -3 -1 -3 -4 -2 0 0 0 -1 0 0 0 0 0 0 0 0 0 -1 0 0 0 0 0 0 0 0 0 0 0 0 0 0 0 0 0 0 0 0 0 0
-1 0 0 -2 -1 0 0 -1 -1 -5 -5 -1 0 0 -1 0 0 0 0 0 0 0 0 0 0 0 0 0 0 0 0 0 0 0 0 0 0 0 0 0 0 0 0 0 0 0 0
0 -1 -2 0 -1 0 -4 -3 0 -3 -3 0 0 0 0 0 0 0 0 0 0 0 0 0 0 0 0 0 0 0 0 0 0 0 0 0 0 0 0 0 0 0 0 0 0 0 0
-2 0 0 -1 -3 -1 0 -4 -1 -2 -4 -1 0 0 0 0 0 0 0 -3 0 -1 0 0 0 0 0 0 0 0 0 0 0 0 0 0 0 0 0 0 0 0 0 0 0 0 0
-2 -2 -3 0 -1 -1 -2 -4 -2 -3 -3 -2 0 0 0 0 0 -1 0 0 0 0 0 0 0 0 0 0 0 0 0 0 0 0 0 0 0 0 0 0 0 0 0 0 0 0 0
0 -1 -3 -1 0 -2 -3 -5 -2 -3 0 -2 0 0 0 0 0 0 -1 0 0 0 0 0 0 0 0 0 0 0 0 0 0 0 0 0 0 0 0 0 0 0 0 0 0 0 0
0 -1 0 -3 0 -2 -3 -1 -6 -4 -1 -3 0 0 0 -1 -3 -9 0 0 0 0 0 0 0 0 0 0 0 0 0 0 0 0 0 0 0 0 0 0 0 0 0 0 0 0 0
0 -3 0 -1 0 -1 -3 -1 -8 -2 -4 -4 -1 -1 -1 0 0 -9 -6 0 0 0 0 0 0 0 0 0 0 0 0 0 0 0 0 0 0 0 0 0 0 0 0 0 0 0 0
0 -2 0 -1 -1 0 -1 -2 -2 -4 -3 -5 -3 -1 0 -1 0 -1 -6 -1 0 0 0 0 0 0 0 0 0 0 0 0 0 0 0 0 0 0 0 0 0 0 0 0 0 0 0
0 -2 0 -2 0 -5 -1 -4 -5 -4 -5 -4 -2 -1 -1 -1 -5 -4 -6 0 0 0 0 0 0 0 0 0 0 0 0 0 0 0 0 0 0 0 0 0 0 0 0 0 0 0 0
-6 -1 -1 -2 -3 -1 -3 -3 -3 -4 -5 -3 0 0 0 0 0 0 -2 0 0 0 -2 0 0 0 0 0 0 0 0 0 0 0 0 0 -4 0 0 0 0 0 0 0 0 0 0
-1 -1 -3 -2 -1 -2 -4 -4 -4 -1 -1 -2 0 0 0 -3 0 0 0 0 -2 0 0 0 0 0 0 0 0 0 0 0 0 -8 0 0 -28 -7 0 0 0 0 0 0 0 0 0
0 -1 -2 -3 -1 -6 -8 -4 -6 -2 0 -1 0 0 -2 0 0 -2 -3 -1 -1 0 0 0 0 0 0 0 0 0 0 0 0 -1 0 0 0 -2 -2 0 0 -3 0 0 0 -4 0
0 0 0 -4 -2 -2 -4 -5 -2 -4 -7 -1 0 -1 -2 0 0 0 0 -1 -1 -1 0 -2 -2 0 0 -1 0 0 0 0 0 0 -1 -10 0 0 0 0 0 -2 0 0 0 0 -1
0 0 0 -1 -1 -2 -4 -5 -2 -12 -8 0 0 0 -2 0 0 -2 -2 -1 0 0 -1 -1 -1 0 -1 -1 -3 0 0 0 0 0 0 0 -2 -1 0 0 0 0 0 0 0 0 0
0 0 0 -1 -3 -2 0 -5 -3 -3 -16 -2 -1 0 -2 0 0 0 -1 -3 -1 -1 -1 -2 -1 0 -2 0 -3 -2 0 0 0 0 -1 0 0 0 0 0 0 0 0 0 0 0 0
0 0 0 -1 -3 -3 -3 -2 -8 0 -1 0 0 0 -3 -1 -2 -1 -2 0 -1 -3 -5 0 0 -1 -2 0 -1 -3 -2 0 0 0 0 -25 0 0 0 0 0 0 0 0 0 0 0
0 0 0 0 0 -2 0 -2 -2 -1 0 0 -1 -2 -2 -1 -2 -1 -1 -1 -2 -1 -2 -2 -3 -3 0 0 -2 -1 -1 -1 0 0 0 0 -4 0 0 0 0 0 0 0 0 0 0
0 0 0 0 0 0 -2 -1 -6 -2 -2 -1 -2 -5 -2 0 -3 -3 -3 -1 -3 -1 -1 -2 0 0 0 -2 -2 -1 -1 -1 0 0 0 0 -1 -3 0 0 0 0 0 0 0 0 0
-1 0 0 0 0 0 -1 0 -9 0 -1 0 -1 0 0 0 -1 -3 -2 -2 -2 -1 0 -1 0 -1 0 0 0 0 0 0 0 0 0 0 0 -3 -1 -2 0 0 0 0 0 0 0
-2 0 0 -1 -2 -3 -2 -2 -1 -1 -2 -1 0 -1 0 0 0 -2 -3 -1 -2 -1 -1 0 0 0 0 0 0 -1 -1 -2 -1 0 0 0 -2 -1 -1 -1 0 0 0 0 -4 0 0
0 0 0 -2 -1 -2 -2 -5 -5 -4 -3 -2 -2 -1 0 0 0 -2 -2 -2 -1 0 -1 -1 0 0 0 0 0 -1 -2 -1 -1 -2 0 0 0 -1 -1 -1 -2 0 0 0 -44 0 0
0 0 0 -1 -2 -2 -2 -2 -2 -3 -4 -2 -1 -1 0 0 0 -1 -1 0 -2 0 0 0 0 0 0 0 0 -1 -1 -2 -2 -3 -1 0 -1 -1 -1 -3 -5 0 0 0 -13 -25 0
0 -1 0 -3 -3 -5 -2 0 0 0 -2 -1 0 0 -1 0 -1 -7 -1 -3 -1 -2 -7 0 0 0 0 -1 -3 -1 0 -2 -2 -2 -3 -1 -2 -2 0 -3 -20 -21 -12 0 0 0 0
Wind_Speed
25 26 26 26 27 27 27 27 28 28 29 30 31 32 33 33 34 35 34 34 36 36 36 38 38 37 32 30 32 26 25 20 13 14 16 16 15 13 18 11 11 17 24 22 25 30 22
26 27 27 27 27 27 27 27 27 29 30 31 32 32 33 34 35 36 35 35 32 29 37 40 38 34 29 42 25 25 23 21 20 23 23 20 19 18 26 17 12 20 31 27 26 32 25
27 27 28 29 28 27 27 27 29 30 31 32 31 33 34 34 35 37 37 37 30 25 31 41 35 29 31 39 26 27 29 28 27 27 26 24 24 22 21 22 18 25 27 26 27 33 32
27 28 28 28 28 29 29 29 29 30 31 31 32 33 34 34 36 37 39 38 31 26 19 31 23 21 33 27 28 33 33 32 30 30 28 26 23 27 26 22 19 24 29 34 29 27 26
28 29 26 29 29 29 30 30 29 30 30 31 33 34 35 36 37 39 40 42 35 27 23 17 17 21 34 23 27 27 24 30 28 32 28 25 23 23 22 24 27 22 31 27 27 22 21
31 29 28 29 30 29 31 30 30 31 31 32 33 35 35 36 37 39 43 42 27 19 19 17 20 24 24 24 21 20 18 21 24 23 24 27 25 24 26 21 30 31 30 32 28 16 17
31 33 30 29 31 30 30 32 30 31 31 32 33 34 34 35 37 39 38 29 28 21 23 26 28 27 28 26 25 23 20 22 22 18 23 24 24 24 15 24 33 31 31 31 24 19 23
33 33 33 31 32 33 31 31 32 31 32 33 33 33 34 34 35 34 30 27 26 27 31 17 13 39 41 33 28 25 15 24 22 28 24 23 28 35 28 28 31 33 33 29 24 24 26
33 33 34 33 31 33 32 31 32 30 31 32 33 32 33 34 33 26 28 25 27 31 27 26 18 25 25 19 30 26 23 25 27 28 27 30 28 38 26 27 29 33 37 32 27 21 27
33 33 34 35 33 32 33 31 33 33 33 32 32 32 32 33 24 29 25 27 29 27 29 23 22 20 18 17 24 33 33 28 26 31 29 34 37 26 23 30 26 34 28 33 28 28 32
34 32 33 36 33 32 34 30 33 31 33 31 31 31 30 27 26 25 28 29 29 21 32 24 20 18 16 18 23 20 27 39 37 29 25 34 27 28 30 29 25 31 24 26 28 29 35
35 33 33 36 35 33 33 31 30 33 32 30 30 30 29 23 22 23 26 29 22 25 30 22 18 23 22 23 22 20 21 25 35 34 33 32 23 28 33 30 25 21 21 20 22 24 39
35 36 36 35 36 33 32 31 30 31 31 30 30 29 27 24 23 21 26 23 27 30 24 25 24 28 25 23 20 20 19 23 27 33 36 29 30 22 27 29 30 28 24 26 28 28 33
37 38 37 34 35 34 32 31 32 29 30 30 30 30 25 22 20 19 22 22 31 26 25 25 25 28 23 22 18 17 19 23 29 30 30 34 31 30 21 25 23 23 21 24 28 30 28
40 38 37 35 33 34 34 33 32 28 28 29 30 27 25 21 15 14 21 29 29 26 26 29 30 26 22 21 20 20 18 22 26 26 29 28 35 25 26 25 23 23 32 31 32 25 27
40 39 37 36 35 33 33 32 31 26 26 27 26 27 28 17 10 14 24 30 26 22 24 26 29 24 25 24 21 19 20 20 21 27 25 27 29 25 24 25 29 26 20 23 25 31 33
35 35 35 37 35 32 33 32 30 25 24 24 25 28 20 10 9 21 30 29 25 23 23 26 25 27 25 26 25 23 21 18 20 22 25 25 25 20 18 25 26 27 26 25 26 28 31
33 33 34 34 31 33 35 33 28 24 21 21 23 30 17 8 22 25 30 27 24 22 23 27 28 30 30 28 29 27 24 23 22 22 21 24 24 22 18 17 21 25 28 28 30 25 27
33 33 32 31 32 33 30 32 28 25 20 20 26 26 17 14 29 29 25 27 24 23 23 24 27 26 26 30 30 26 25 20 20 21 19 19 27 30 29 25 22 21 20 20 23 26 30
32 29 29 31 30 29 31 28 30 23 22 21 25 28 23 22 24 27 25 27 25 22 24 22 26 25 28 31 30 28 27 24 23 20 23 22 20 27 32 28 22 24 21 21 24 27 30
30 29 28 27 25 28 31 30 30 27 23 20 26 27 23 23 27 27 24 23 24 23 20 21 28 30 30 32 32 31 28 27 25 21 20 18 23 22 21 21 23 24 25 25 28 29 31
30 28 26 23 20 20 28 35 31 27 26 25 27 26 25 28 22 19 23 25 26 21 19 22 26 23 27 35 35 30 29 31 30 25 24 22 26 23 26 26 26 29 29 30 32 32 34
29 27 27 24 21 18 25 36 36 30 28 28 27 28 25 27 26 25 22 21 24 23 22 24 22 23 27 30 32 34 36 35 34 30 27 26 25 28 34 27 29 34 33 32 31 30 31
25 22 22 20 16 16 26 38 39 35 32 30 27 26 30 34 27 24 23 24 24 23 25 20 19 21 23 26 28 31 31 33 35 35 30 28 25 25 30 26 36 27 21 23 27 29 29
17 17 17 15 14 15 31 39 37 37 38 34 31 27 26 37 39 36 28 27 27 28 33 36 34 28 21 25 25 27 27 28 31 33 32 29 28 28 32 33 35 34 26 26 27 26 22
22 22 23 25 25 27 43 43 42 40 39 36 37 34 36 36 27 29 32 33 34 36 34 32 33 25 15 19 20 25 26 24 24 23 26 26 27 29 27 34 35 25 16 16 19 25 14
28 27 29 29 31 34 44 46 47 47 45 41 36 35 37 43 43 37 35 37 34 29 31 27 22 23 16 21 23 23 25 21 24 24 21 23 24 28 27 27 24 20 18 15 20 18 22
30 32 32 33 35 39 43 46 47 49 50 48 47 36 22 39 40 34 41 38 33 33 33 25 20 23 18 22 23 20 22 21 23 17 17 20 21 22 23 24 25 15 13 16 17 20 26
23 28 33 35 37 40 42 44 46 48 48 47 47 31 30 40 33 39 43 39 38 36 32 28 23 15 17 24 28 25 24 21 22 24 18 20 17 17 17 18 13 10 13 18 22 27 31
Wind_Direction
330 330 330 330 329 329 330 329 329 330 329 330 329 329 330 331 330 330 333 334 335 337 326 310 301 299 301 287 278 291 293 292 290 265 266 262 263 262 271 279 294 285 279 283 274 257 299
326 324 326 326 327 328 327 328 329 328 326 326 327 329 328 329 331 331 332 332 335 339 328 308 298 297 296 271 291 284 283 284 274 261 261 263 269 269 275 284 277 293 268 273 275 256 290
322 322 321 320 322 328 329 327 325 324 322 323 326 327 328 330 330 329 330 329 334 336 332 306 301 295 290 278 292 277 271 272 269 262 258 260 263 270 279 283 284 279 277 275 274 252 256
319 317 317 319 318 319 321 322 322 322 320 322 324 326 326 328 329 328 326 329 335 336 335 322 318 301 290 292 286 270 265 265 261 259 258 262 265 266 272 286 291 277 270 261 271 273 281
315 314 317 316 316 317 318 317 319 318 321 322 321 324 326 327 326 326 325 322 332 341 350 356 333 305 290 300 281 271 271 264 264 253 258 263 264 267 272 274 272 278 264 273 274 286 294
312 312 313 314 313 315 312 312 314 314 317 319 320 321 324 326 327 326 322 319 340 355 1 2 335 306 298 294 295 274 274 270 263 252 255 253 258 260 260 260 262 262 266 266 275 296 296
308 307 309 310 309 310 311 308 311 313 315 316 318 321 324 327 327 327 328 340 338 346 347 325 308 300 295 298 283 273 273 263 260 251 248 249 250 248 238 258 259 269 265 266 282 291 285
307 306 306 307 307 305 307 306 308 311 313 313 315 319 323 325 328 329 336 339 344 339 332 330 251 256 265 276 276 268 272 251 258 252 248 252 251 250 260 260 261 261 261 269 282 285 280
306 306 305 304 305 302 304 305 307 311 312 311 313 317 322 325 326 334 335 339 339 335 335 336 350 313 298 277 266 265 258 258 256 256 248 249 259 246 259 259 259 260 253 264 278 293 278
305 304 302 301 302 301 302 304 303 305 308 309 311 315 321 324 334 329 330 332 331 337 323 334 347 345 330 297 275 260 253 259 256 254 254 255 251 260 255 256 259 259 266 265 277 281 271
303 303 302 301 300 300 300 301 303 304 305 307 310 313 319 326 326 327 324 325 325 340 294 330 346 2 358 304 289 280 263 246 248 256 252 254 262 252 255 258 257 261 270 271 273 277 265
301 301 300 297 298 298 298 299 302 303 302 306 308 311 317 323 327 326 325 321 327 310 288 318 338 338 327 307 293 293 280 252 250 253 255 260 270 258 252 253 256 268 267 275 277 278 255
299 299 296 297 296 296 297 297 300 301 301 303 305 308 311 315 317 327 322 318 300 287 313 308 311 314 322 305 300 289 279 254 248 244 249 258 255 265 255 249 253 255 259 266 267 266 268
297 297 294 294 293 294 294 295 297 298 300 302 303 304 306 307 316 322 319 306 288 296 298 309 313 308 313 324 313 304 284 263 251 250 252 249 253 249 253 250 257 245 244 261 267 266 274
295 293 291 291 291 291 292 293 293 296 299 301 302 301 302 306 307 312 303 286 290 294 299 298 300 301 304 315 315 299 288 278 263 251 251 253 254 259 253 252 249 252 251 259 270 277 272
294 292 291 290 289 289 289 289 291 294 298 301 298 297 294 301 300 294 287 285 291 299 303 302 290 298 292 299 302 304 290 300 279 256 257 257 258 259 250 246 247 254 257 257 260 265 268
300 295 291 288 287 287 288 287 288 288 296 298 293 289 302 304 288 280 279 287 287 294 298 294 291 288 289 290 294 293 290 295 297 280 257 257 258 258 249 248 248 247 252 262 268 267 270
301 299 294 290 287 286 284 282 283 282 290 289 287 280 300 288 273 280 278 284 291 295 295 287 290 283 283 287 283 280 282 286 301 292 265 254 257 250 246 268 266 254 257 255 260 266 272
300 297 296 294 291 287 281 279 277 277 276 282 279 279 290 278 272 273 285 283 287 286 286 289 285 285 284 276 275 275 276 288 299 292 281 270 253 247 252 259 262 263 265 263 266 271 269
299 297 296 294 292 288 282 277 272 270 270 268 277 275 274 272 276 278 275 280 281 287 281 285 284 284 280 273 270 270 271 278 288 291 283 275 264 255 252 258 262 260 265 269 269 269 272
298 297 295 295 293 289 278 272 268 265 261 260 267 270 273 275 268 269 277 288 278 280 279 279 280 273 272 267 263 261 269 272 275 284 280 277 261 263 264 268 269 266 264 268 269 272 273
297 294 293 291 290 287 279 265 262 259 255 253 262 264 271 270 277 271 265 274 276 283 279 278 274 278 269 261 259 262 265 267 266 272 271 274 263 266 264 267 268 267 267 268 269 273 275
296 292 291 289 287 281 278 260 253 250 248 254 259 263 269 270 267 269 273 278 275 279 275 273 276 274 272 268 267 266 265 262 261 263 266 267 266 263 261 271 270 266 264 269 273 276 280
293 287 285 284 272 269 272 254 248 247 247 252 258 259 259 260 266 268 273 276 274 273 268 276 274 272 280 274 274 267 264 260 258 256 258 263 265 265 265 271 263 276 285 284 280 283 288
261 256 251 257 243 236 240 248 247 245 245 249 250 254 259 255 252 260 269 268 268 264 252 236 224 260 280 274 268 258 257 260 257 254 250 256 262 264 264 263 272 276 279 280 281 285 296
242 234 227 221 216 211 227 240 243 244 245 246 246 248 249 253 262 260 255 248 248 235 233 252 246 255 281 267 260 252 253 257 257 257 249 253 257 262 268 266 270 279 291 302 296 282 300
237 228 221 216 212 209 225 227 231 233 236 239 245 243 244 244 243 240 234 226 230 246 249 261 253 249 262 258 256 256 257 262 257 253 249 247 253 256 262 269 281 277 291 304 280 290 311
231 221 215 212 211 213 217 223 221 223 222 227 230 241 231 244 237 232 224 229 239 238 238 252 258 252 258 250 252 259 262 260 260 265 256 247 252 256 263 270 274 295 294 283 304 308 312
222 208 208 208 210 212 214 216 215 214 206 200 225 243 244 229 238 232 229 228 236 239 241 243 252 262 254 248 245 250 254 259 259 256 259 260 262 265 269 278 300 305 304 297 303 305 309